Ottawa, Ontario

6:22 AM EST on December 07, 2016 (GMT -0500)
Ottawa-Macdonald-Cartier International

Weather History for CYOW - October, 2012

Change the Weather History Date:

Wednesday, October 10, 2012

  Actual Average Record
Temperature  
Mean Temperature 50 °F -  
Max Temperature 58 °F 56 °F 73 °F (2003)
Min Temperature 42 °F 39 °F 32 °F (2015)
Degree Days  
Heating Degree Days 15    
Moisture  
Dew Point 44 °F    
Average Humidity 82    
Maximum Humidity 94    
Minimum Humidity 56    
Precipitation  
Precipitation 0.16 in - - ()
Sea Level Pressure  
Sea Level Pressure 29.79 in    
Wind  
Wind Speed 10 mph ()    
Max Wind Speed 18 mph    
Max Gust Speed 31 mph    
Visibility 13.9 miles    
Events Rain    
Averages and records for this station are not official NWS values.
T = Trace of Precipitation, MM = Missing Value Source: Averaged Metar Reports

Daily Weather History Graph

Daily Weather History Graph

Search for Another Location

Airport or City:

Trip Planner

Search our weather history database for the weather conditions in past years. The results will help you decide how hot, cold, wet, or windy it might be!

Date:

Astronomy

Oct. 10, 2012 Rise Set
Actual Time 7:12 AM EDT 6:25 PM EDT
Civil Twilight 6:43 AM EDT 6:55 PM EDT
Nautical Twilight 6:09 AM EDT 7:29 PM EDT
Astronomical Twilight 5:34 AM EDT 8:03 PM EDT
Moon 1:32 AM EDT (10/10) 3:39 PM EDT (10/10)
Length of Visible Light 12h 11m
Length of Day
11h 12m
Waning Crescent, 27% of the Moon is Illuminated
Oct 10
Waning Crescent
Oct 15
New
Oct 21
First Quarter
Oct 29
Full
Nov 6
Last Quarter

Hourly Weather History & Observations

Time (EDT) Temp. Windchill Dew Point Humidity Pressure Visibility Wind Dir Wind Speed Gust Speed Precip Events Conditions
12:00 AM 46.4 °F 41.9 °F 39.2 °F 76% 29.98 in 15.0 mi SSE 9.2 mph - N/A   Scattered Clouds
1:00 AM 44.6 °F 40.2 °F 39.2 °F 81% 29.97 in 15.0 mi SSE 8.1 mph - N/A   Partly Cloudy
2:00 AM 44 °F - 41 °F 84% 29.96 in 15 mi SE 8.1 mph - -   Clear
2:00 AM 44.6 °F 40.2 °F 41.0 °F 87% 29.95 in 15.0 mi SE 8.1 mph - N/A   Scattered Clouds
3:00 AM 44.6 °F 39.7 °F 41.0 °F 87% 29.92 in 15.0 mi SE 9.2 mph - N/A   Mostly Cloudy
4:00 AM 44.6 °F 39.2 °F 42.8 °F 93% 29.90 in 15.0 mi SSE 10.4 mph - N/A   Mostly Cloudy
5:00 AM 44.6 °F 40.2 °F 42.8 °F 93% 29.88 in 15.0 mi SSE 8.1 mph - N/A   Mostly Cloudy
6:00 AM 46.4 °F 41.5 °F 44.6 °F 93% 29.86 in 15.0 mi SSE 10.4 mph - N/A   Scattered Clouds
7:00 AM 48.2 °F - 46.4 °F 93% 29.85 in 15.0 mi SSE 10.4 mph - N/A   Mostly Cloudy
8:00 AM 50 °F - 47 °F 84% 29.83 in 15 mi South 10.4 mph - -   Scattered Clouds
8:00 AM 50.0 °F - 46.4 °F 87% 29.83 in 15.0 mi South 9.2 mph - N/A   Mostly Cloudy
9:00 AM 51.8 °F - 46.4 °F 82% 29.81 in 15.0 mi South 11.5 mph 19.6 mph N/A   Mostly Cloudy
10:00 AM 53.6 °F - 48.2 °F 82% 29.78 in 15.0 mi South 11.5 mph 19.6 mph N/A   Mostly Cloudy
11:00 AM 55.4 °F - 48.2 °F 77% 29.75 in 15.0 mi South 13.8 mph 20.7 mph N/A   Mostly Cloudy
12:00 PM 55.4 °F - 46.4 °F 72% 29.72 in 15.0 mi South 15.0 mph 26.5 mph N/A Rain Light Rain
12:20 PM 57.2 °F - 48.2 °F 72% 29.70 in 15.0 mi South 11.5 mph 23.0 mph N/A   Mostly Cloudy
1:00 PM 57.2 °F - 44.6 °F 63% 29.67 in 15.0 mi South 13.8 mph 24.2 mph N/A   Mostly Cloudy
2:00 PM 57 °F - 46 °F 56% 29.66 in 15 mi SSW 18.4 mph - -   Partly Cloudy
2:00 PM 57.2 °F - 46.4 °F 67% 29.66 in 15.0 mi SSW 18.4 mph 31.1 mph N/A   Mostly Cloudy
2:14 PM 55.4 °F - 46.4 °F 72% 29.65 in 8.0 mi SSW 16.1 mph 25.3 mph N/A Rain Light Rain
2:22 PM 53.6 °F - 48.2 °F 82% 29.67 in 3.0 mi SW 18.4 mph 27.6 mph N/A Rain Light Rain
2:34 PM 51.8 °F - 50.0 °F 94% 29.68 in 8.0 mi SW 13.8 mph 24.2 mph N/A Rain Light Rain
3:00 PM 51.8 °F - 50.0 °F 94% 29.68 in 12.0 mi SW 15.0 mph 23.0 mph N/A   Overcast
3:08 PM 51.8 °F - 50.0 °F 94% 29.69 in 8.0 mi WSW 18.4 mph 26.5 mph N/A Rain Light Rain Showers
3:36 PM 46.4 °F 40.7 °F 44.6 °F 93% 29.71 in 15.0 mi West 12.7 mph 21.9 mph N/A   Mostly Cloudy
4:00 PM 46.4 °F 41.1 °F 42.8 °F 87% 29.71 in 15.0 mi West 11.5 mph - N/A   Mostly Cloudy
5:00 PM 48.2 °F - 44.6 °F 87% 29.73 in 15.0 mi WSW 6.9 mph - N/A   Mostly Cloudy
6:00 PM 46.4 °F 42.9 °F 42.8 °F 87% 29.75 in 15.0 mi WSW 6.9 mph - N/A   Mostly Cloudy
7:00 PM 44.6 °F 40.2 °F 41.0 °F 87% 29.76 in 15.0 mi WSW 8.1 mph - N/A   Mostly Cloudy
8:00 PM 46 °F - 40 °F 72% 29.78 in 15 mi WSW 12.7 mph - -   Partly Cloudy
8:00 PM 46.4 °F 41.5 °F 39.2 °F 76% 29.78 in 15.0 mi WSW 10.4 mph 19.6 mph N/A   Mostly Cloudy
9:00 PM 44.6 °F 38.8 °F 39.2 °F 81% 29.80 in 15.0 mi WSW 11.5 mph - N/A   Mostly Cloudy
10:00 PM 42.8 °F 36.6 °F 37.4 °F 81% 29.81 in 15.0 mi WSW 11.5 mph - N/A   Mostly Cloudy
11:00 PM 42.8 °F 37.0 °F 37.4 °F 81% 29.81 in 15.0 mi WSW 10.4 mph - N/A   Mostly Cloudy